EJU64UV LIMC-HESX

Flight info

Callsign EJU64UV
Flight time N/A
Altitude 35000
Route ROBAS DCT IBNAN DCT IPDAB DCT LUMAV DCT NIKOL DCT VAKSU DCT PINDO DCT PIKOS UL607 ATV DCT PAXIS L607 NABSI P557 OBRAN L321 REXUM M872 FYM W613 ALPID W8 CVO
Aircraft A320/M-SDE2E3FGHIJ1RWXYZ/LB1

Departure

Time N/A
Airport Milan Malpensa International Airport (LIMC)

Arrival

Time 2026-05-06 12:34
Airport Sphinx International Airport (HESX)
Time Latitude Longitude Altitude Speed Heading
2026-05-06 12:27 29.74458 31.00104 9687 ft 270 kts 344°
2026-05-06 12:27 29.76270 30.99583 9163 ft 265 kts 344°
2026-05-06 12:27 29.77996 30.99090 8947 ft 249 kts 344°
2026-05-06 12:28 29.79660 30.98613 8494 ft 244 kts 344°
2026-05-06 12:28 29.81291 30.98143 8020 ft 240 kts 345°
2026-05-06 12:28 29.82908 30.97676 7570 ft 238 kts 345°
2026-05-06 12:28 29.84504 30.97215 7118 ft 236 kts 345°
2026-05-06 12:29 29.86090 30.96756 6670 ft 235 kts 345°
2026-05-06 12:29 29.87658 30.96303 6198 ft 230 kts 346°
2026-05-06 12:29 29.89203 30.95856 5434 ft 229 kts 346°
2026-05-06 12:29 29.90736 30.95412 4757 ft 225 kts 346°
2026-05-06 12:30 29.92204 30.94987 4048 ft 222 kts 346°
2026-05-06 12:30 29.93670 30.94568 3642 ft 208 kts 346°
2026-05-06 12:30 29.95036 30.94176 3406 ft 198 kts 346°
2026-05-06 12:30 29.96328 30.93800 3158 ft 185 kts 345°
2026-05-06 12:31 29.97532 30.93450 2916 ft 171 kts 346°
2026-05-06 12:31 29.98646 30.93125 2686 ft 160 kts 346°
2026-05-06 12:31 29.99658 30.92831 2476 ft 146 kts 346°
2026-05-06 12:31 30.00628 30.92548 2295 ft 141 kts 346°
2026-05-06 12:32 30.01565 30.92275 2101 ft 139 kts 346°
2026-05-06 12:32 30.02500 30.92002 1918 ft 139 kts 346°
2026-05-06 12:32 30.03443 30.91725 1737 ft 140 kts 346°
2026-05-06 12:32 30.04387 30.91449 1550 ft 141 kts 346°
2026-05-06 12:33 30.05328 30.91172 1366 ft 137 kts 346°
2026-05-06 12:33 30.06240 30.90904 1202 ft 134 kts 346°
2026-05-06 12:33 30.07161 30.90643 1012 ft 139 kts 346°
2026-05-06 12:33 30.08101 30.90368 831 ft 139 kts 346°
2026-05-06 12:34 30.09034 30.90094 640 ft 137 kts 347°
2026-05-06 12:34 30.09925 30.89831 512 ft 122 kts 347°
2026-05-06 12:34 30.10587 30.89639 518 ft 60 kts 346°
2026-05-06 12:34 30.10850 30.89566 520 ft 18 kts 346°
2026-05-06 12:35 30.10934 30.89508 520 ft 15 kts 299°
2026-05-06 12:35 30.10919 30.89403 520 ft 12 kts 253°
2026-05-06 12:35 30.10899 30.89316 521 ft 10 kts 255°
2026-05-06 12:35 30.10882 30.89241 521 ft 9 kts 255°
2026-05-06 12:36 30.10864 30.89166 520 ft 10 kts 245°
2026-05-06 12:36 30.10804 30.89150 519 ft 10 kts 174°
2026-05-06 12:36 30.10760 30.89106 519 ft 8 kts 252°
2026-05-06 12:36 30.10756 30.89084 519 ft 0 kts 257°